Weather History for Livingston, MT

Change the Weather History Date:

Friday, January 4, 2013

  Actual Average Record
Temperature  
Mean Temperature 32 °F 26 °F  
Max Temperature 42 °F 36 °F 55 °F (1984)
Min Temperature 21 °F 17 °F -19 °F (2004)
Degree Days  
Heating Degree Days 34 39  
Month to date heating degree days 156  
Since 1 July heating degree days 3321  
Moisture  
Dew Point 6 °F    
Average Humidity 34    
Maximum Humidity 50    
Minimum Humidity 21    
Precipitation  
Precipitation 0.00 in 0.01 in 0.25 in (1965)
Month to date precipitation 0.06  
Year to date precipitation 0.06  
Sea Level Pressure  
Sea Level Pressure 30.19 in    
Wind  
Wind Speed 22 mph (West)    
Max Wind Speed 37 mph    
Max Gust Speed 44 mph    
Visibility 10 miles    
Events      
T = Trace of Precipitation, MM = Missing Value Source: NWS Daily Summary

Daily Weather History Graph

Daily Weather History Graph

Search for Another Location

Airport:

Trip Planner

Search our weather history database for the weather conditions in past years. The results will help you decide how hot, cold, wet, or windy it might be!

Date:

Astronomy

Jan. 04, 2013 Rise Set
Actual Time 8:02 AM MST 4:51 PM MST
Civil Twilight 7:28 AM MST 5:25 PM MST
Nautical Twilight 6:51 AM MST 6:03 PM MST
Astronomical Twilight 6:15 AM MST 6:39 PM MST
Moon No Moon Rise 11:23 AM MST (1/4)
Length of Visible Light 9h 57m
Length of Day
8h 49m
Waning Gibbous, 54% of the Moon is Illuminated
Jan 4
Waning Gibbous
Jan 4
Last Quarter
Jan 11
New
Jan 18
First Quarter
Jan 26
Full

Hourly Weather History & Observations

Time (MST) Temp. Windchill Dew Point Humidity Pressure Visibility Wind Dir Wind Speed Gust Speed Precip Events Conditions
12:53 AM 34.0 °F 20.5 °F 8.1 °F 34% 30.11 in 10.0 mi WSW 28.8 mph 40.3 mph N/A   Clear
1:03 AM 33.8 °F 21.6 °F 8.6 °F 35% 30.04 in 10.0 mi WSW 23.0 mph 39.1 mph N/A   Clear
1:53 AM 34.0 °F 19.1 °F 7.0 °F 32% 30.15 in 10.0 mi West 36.8 mph 43.7 mph N/A   Clear
2:53 AM 30.0 °F 16.6 °F 7.0 °F 38% 30.21 in 10.0 mi West 23.0 mph 32.2 mph N/A   Clear
3:53 AM 32.0 °F 18.9 °F 5.0 °F 32% 30.18 in 10.0 mi West 24.2 mph 32.2 mph N/A   Clear
5:37 AM 21.2 °F 7.3 °F 5.0 °F 50% 30.11 in 10.0 mi WNW 16.1 mph - N/A   Clear
5:53 AM 21.9 °F 6.9 °F 3.9 °F 46% 30.24 in 10.0 mi NW 19.6 mph 27.6 mph N/A   Clear
6:53 AM 30.0 °F 17.9 °F 3.9 °F 33% 30.23 in 10.0 mi West 18.4 mph - N/A   Clear
7:53 AM 33.1 °F 21.5 °F 3.9 °F 29% 30.19 in 10.0 mi West 19.6 mph - N/A   Clear
8:53 AM 28.0 °F 15.7 °F 5.0 °F 38% 30.23 in 10.0 mi NW 17.3 mph - N/A   Clear
9:53 AM 36.0 °F 26.7 °F 3.9 °F 26% 30.23 in 10.0 mi West 15.0 mph - N/A   Clear
10:53 AM 39.0 °F 28.5 °F 3.9 °F 23% 30.24 in 10.0 mi WSW 23.0 mph 32.2 mph N/A   Clear
11:53 AM 39.9 °F 30.2 °F 3.0 °F 21% 30.17 in 10.0 mi WSW 20.7 mph 33.4 mph N/A   Clear
12:53 PM 41.0 °F 31.4 °F 3.9 °F 21% 30.15 in 10.0 mi WSW 21.9 mph 31.1 mph N/A   Clear
1:53 PM 42.1 °F 33.1 °F 3.9 °F 21% 30.13 in 10.0 mi WSW 20.7 mph 27.6 mph N/A   Clear
2:53 PM 39.9 °F 31.4 °F 5.0 °F 23% 30.18 in 10.0 mi West 16.1 mph - N/A   Clear
3:53 PM 39.9 °F 31.1 °F 8.1 °F 27% 30.16 in 10.0 mi WSW 17.3 mph - N/A   Clear
4:53 PM 35.1 °F 25.5 °F 8.1 °F 33% 30.18 in 10.0 mi WNW 15.0 mph 24.2 mph N/A   Clear
5:53 PM 34.0 °F 21.8 °F 6.1 °F 31% 30.23 in 10.0 mi WSW 23.0 mph - N/A   Clear
6:53 PM 32.0 °F 21.6 °F 7.0 °F 35% 30.23 in 10.0 mi WSW 15.0 mph - N/A   Clear
7:53 PM 30.9 °F 20.2 °F 7.0 °F 37% 30.24 in 10.0 mi West 15.0 mph - N/A   Clear
8:53 PM 30.9 °F 20.7 °F 9.0 °F 40% 30.26 in 10.0 mi West 13.8 mph - N/A   Clear
9:53 PM 25.0 °F 14.8 °F 8.1 °F 49% 30.26 in 10.0 mi WNW 10.4 mph - N/A   Mostly Cloudy
10:53 PM 30.0 °F 17.9 °F 10.9 °F 45% 30.21 in 10.0 mi WSW 18.4 mph - N/A   Clear
11:53 PM 30.9 °F 18.1 °F 10.9 °F 43% 30.22 in 10.0 mi WSW 21.9 mph - N/A   Clear